This is the latest recevied weather packets stored in our database for station/object N8ESC. If no packets are shown the sender has not sent any weather packets the latest 10 day(s).
| Time | Temp. | Humidity | Pressure | Rain* | Wind** | Luminosity | Snow |
|---|---|---|---|---|---|---|---|
| 1778107576 | 7.22° C | 42% | 1011.1 hPa | 0 mm | - | 93 W/m² | - |
| 1778107273 | 7.22° C | 42% | 1011 hPa | 0 mm | - | 105 W/m² | - |
| 1778106969 | 7.22° C | 41% | 1011.1 hPa | 0 mm | - | 128 W/m² | - |
| 1778106665 | 7.22° C | 41% | 1011.4 hPa | 0 mm | - | 129 W/m² | - |
| 1778106362 | 7.22° C | 41% | 1011.1 hPa | 0 mm | - | 123 W/m² | - |
| 1778106058 | 7.78° C | 41% | 1011.3 hPa | 0 mm | - | 154 W/m² | - |
| 1778105756 | 7.22° C | 43% | 1011.3 hPa | 0 mm | - | 216 W/m² | - |
| 1778105454 | 6.67° C | 46% | 1011.1 hPa | 0 mm | - | 161 W/m² | - |
| 1778105150 | 6.67° C | 46% | 1011.3 hPa | 0 mm | - | 170 W/m² | - |
| 1778104845 | 7.22° C | 47% | 1011.3 hPa | 0 mm | - | 173 W/m² | - |
| 1778104542 | 7.22° C | 45% | 1011.1 hPa | 0 mm | - | 199 W/m² | - |
| 1778104238 | 7.22° C | 46% | 1011.1 hPa | 0 mm | - | 237 W/m² | - |
| 1778103935 | 7.22° C | 45% | 1011.1 hPa | 0 mm | - | 227 W/m² | - |
| 1778103633 | 7.22° C | 45% | 1010.9 hPa | 0 mm | - | 238 W/m² | - |
| 1778103331 | 7.22° C | 44% | 1011 hPa | 0 mm | - | 226 W/m² | - |
| 1778103027 | 7.22° C | 42% | 1010.9 hPa | 0 mm | - | 233 W/m² | - |
| 1778102724 | 7.22° C | 45% | 1010.9 hPa | 0 mm | - | 256 W/m² | - |
| 1778102419 | 7.78° C | 44% | 1010.8 hPa | 0 mm | - | 252 W/m² | - |
| 1778102115 | 7.78° C | 43% | 1010.9 hPa | 0 mm | - | 258 W/m² | - |
| 1778101813 | 7.22° C | 42% | 1010.6 hPa | 0 mm | - | 269 W/m² | - |
| 1778101509 | 7.78° C | 43% | 1011 hPa | 0 mm | - | 215 W/m² | - |
| 1778101206 | 7.78° C | 43% | 1010.8 hPa | 0 mm | - | 284 W/m² | - |
| 1778100902 | 7.78° C | 44% | 1010.9 hPa | 0 mm | - | 306 W/m² | - |
| 1778100598 | 7.78° C | 43% | 1010.9 hPa | 0 mm | - | 406 W/m² | - |
| 1778100296 | 7.22° C | 45% | 1011 hPa | 0 mm | - | 281 W/m² | - |
* Rain latest hour (hover to see other rain measurements)
** Current wind speed in m/s (hover to see current wind gust speed)